Findlay, OH

3:55 PM EST on November 21, 2019 (GMT -0500)
Findlay

Weather History for KFDY - September, 2019

Change the Weather History Date:

Tuesday, September 17, 2019

  Actual Average Record
Temperature  
Mean Temperature 72 °F -  
Max Temperature 80 °F 73 °F 95 °F (1955)
Min Temperature 66 °F 54 °F 36 °F (1959)
Cooling Degree Days 8    
Growing Degree Days 22 (Base 50)    
Moisture  
Dew Point 63 °F    
Average Humidity 76    
Maximum Humidity 90    
Minimum Humidity 54    
Precipitation  
Precipitation 0.00 in - - ()
Sea Level Pressure  
Sea Level Pressure 30.14 in    
Wind  
Wind Speed 8 mph (NE)    
Max Wind Speed 16 mph    
Max Gust Speed -    
Visibility 10 miles    
Events      
Averages and records for this station are not official NWS values.
T = Trace of Precipitation, MM = Missing Value Source: NWS Daily Summary

Daily Weather History Graph

Daily Weather History Graph

Search for Another Location

Airport or City:

Astronomy

Sep. 17, 2019 Rise Set
Actual Time 7:16 AM EDT 7:40 PM EDT
Civil Twilight 6:49 AM EDT 8:08 PM EDT
Nautical Twilight 6:16 AM EDT 8:40 PM EDT
Astronomical Twilight 5:43 AM EDT 9:13 PM EDT
Moon 9:41 PM EDT (9/17) 10:21 AM EDT (9/17)
Length of Visible Light 13h 18m
Length of Day
12h 23m
Waning Gibbous, 89% of the Moon is Illuminated
Sep 17
Waning Gibbous
Sep 21
Last Quarter
Sep 28
New
Oct 5
First Quarter
Oct 13
Full

Hourly Weather History & Observations

Time (EDT) Temp. Dew Point Humidity Pressure Visibility Wind Dir Wind Speed Gust Speed Precip Events Conditions
12:53 AM 69.1 °F 64.9 °F 87% 30.08 in 10.0 mi NE 4.6 mph - N/A   Clear
1:53 AM 69.1 °F 64.9 °F 87% 30.08 in 9.0 mi ENE 6.9 mph - N/A   Scattered Clouds
2:00 AM 69.1 °F 64.9 °F 87% 30.11 in 10.0 mi ENE 6.9 mph - N/A   Mostly Cloudy
2:08 AM 69.1 °F 64.9 °F 87% 30.11 in 9.0 mi ENE 5.8 mph - N/A   Scattered Clouds
2:53 AM 69.1 °F 66.0 °F 90% 30.09 in 7.0 mi ENE 8.1 mph - N/A   Mostly Cloudy
3:53 AM 70.0 °F 66.0 °F 87% 30.09 in 8.0 mi East 5.8 mph - N/A   Overcast
4:53 AM 70.0 °F 64.9 °F 84% 30.09 in 9.0 mi ENE 9.2 mph - N/A   Overcast
5:03 AM 70.0 °F 64.9 °F 84% 30.12 in 10.0 mi NE 8.1 mph - N/A   Overcast
5:53 AM 69.1 °F 64.9 °F 87% 30.11 in 10.0 mi NNE 9.2 mph - N/A   Overcast
6:53 AM 69.1 °F 64.0 °F 84% 30.12 in 10.0 mi NNE 8.1 mph - N/A   Overcast
7:28 AM 69.1 °F 64.0 °F 84% 30.16 in 10.0 mi North 8.1 mph - N/A   Overcast
7:53 AM 69.1 °F 64.0 °F 84% 30.15 in 9.0 mi North 6.9 mph - N/A   Overcast
8:00 AM 69.1 °F 64.0 °F 84% 30.17 in 8.0 mi North 6.9 mph - N/A   Overcast
8:53 AM 69.1 °F 64.0 °F 84% 30.16 in 10.0 mi NNE 9.2 mph - N/A   Overcast
9:14 AM 70.0 °F 64.0 °F 81% 30.19 in 10.0 mi NNE 9.2 mph - N/A   Overcast
9:53 AM 70.0 °F 64.0 °F 81% 30.17 in 10.0 mi NNE 10.4 mph - N/A   Overcast
10:00 AM 70.0 °F 64.0 °F 81% 30.19 in 10.0 mi NNE 10.4 mph - N/A   Overcast
10:53 AM 72.0 °F 64.9 °F 78% 30.17 in 10.0 mi NE 6.9 mph - N/A   Overcast
11:05 AM 73.0 °F 64.0 °F 73% 30.19 in 10.0 mi NE 9.2 mph - N/A   Overcast
11:28 AM 75.0 °F 64.0 °F 69% 30.19 in 10.0 mi NE 10.4 mph - N/A   Mostly Cloudy
11:53 AM 75.0 °F 64.0 °F 69% 30.16 in 10.0 mi NE 12.7 mph - N/A   Mostly Cloudy
12:53 PM 75.9 °F 63.0 °F 64% 30.16 in 10.0 mi NE 9.2 mph - N/A   Mostly Cloudy
1:53 PM 78.1 °F 63.0 °F 60% 30.15 in 10.0 mi NE 10.4 mph - N/A   Mostly Cloudy
2:53 PM 78.1 °F 62.1 °F 58% 30.14 in 10.0 mi NNE 8.1 mph - N/A   Mostly Cloudy
3:53 PM 79.0 °F 61.0 °F 54% 30.12 in 10.0 mi NE 5.8 mph - N/A   Partly Cloudy
4:53 PM 77.0 °F 60.1 °F 56% 30.12 in 10.0 mi NNE 12.7 mph - N/A   Scattered Clouds
5:53 PM 77.0 °F 61.0 °F 58% 30.11 in 10.0 mi NNE 16.1 mph - N/A   Clear
6:53 PM 73.9 °F 60.1 °F 62% 30.12 in 10.0 mi NE 10.4 mph - N/A   Clear
7:53 PM 71.1 °F 59.0 °F 66% 30.12 in 10.0 mi NE 12.7 mph - N/A   Clear
8:53 PM 69.1 °F 60.1 °F 73% 30.13 in 10.0 mi NE 10.4 mph - N/A   Clear
9:53 PM 66.9 °F 61.0 °F 81% 30.13 in 10.0 mi ENE 8.1 mph - N/A   Clear
10:53 PM 66.9 °F 60.1 °F 79% 30.14 in 10.0 mi ENE 11.5 mph - N/A   Clear
11:53 PM 66.0 °F 57.9 °F 75% 30.14 in 10.0 mi ENE 9.2 mph - N/A   Clear